Flag for U.S.A. Weather past 2 weeks in Garden Grove, California, U.S.A.

Now
71 °F

Clear.


Feels Like: 72 °F
Forecast: 69 / 86 °F
Wind: 3 mph from Southeast

Location: Fullerton Municipal Airport

Current Time: Jul 31, 2014 at 5:09:22 AM

Latest Report: Jul 31, 2014 at 3:53 AM


Visibility: 10 mi

Pressure: 29.89 "Hg

Humidity: 78%

Dew point: 64 °F

Location of Garden GroveLocation

Historic Weather in Garden Grove — Graph

°F

Garden Grove temperature yesterday

Maximum temperature yesterday: 89 °F (at 3:53 PM)
Minimum temperature yesterday: 69 °F (at 5:53 AM)
Average temperature yesterday: 78 °F

Past Weeks' High & Low Weather Summary

 TemperatureHumidityPressure
High96 °F (Jul 24, 3:53 PM)85% (Jul 22, 6:53 AM)30.06 "Hg (Jul 22, 6:53 AM)
Low65 °F (Jul 18, 5:53 AM)16% (Jul 28, 5:53 PM)29.71 "Hg (Jul 24, 5:53 PM)
Average76 °F60%29.95 "Hg
* Reported Jul 16 3:53 AM — Jul 31 3:53 AM, Garden Grove, Weather by CustomWeather, © 2014

Note: Actual official high and low records may vary slightly from our data, if they occured in-between our weather recording intervals... More about our weather records

Advertising

Garden Grove weather history for previous 24 hours

 ConditionsComfort  
Time TempWeatherWind HumidityBarometerVisibility
3:53 AM
Jul 31
71 °FClear.3 mph78%29.89 "Hg10 mi
2:53 AM71 °FClear.No wind76%29.89 "Hg10 mi
1:53 AM71 °FClear.No wind78%29.91 "Hg10 mi
12:53 AM72 °FClear.3 mph73%29.92 "Hg10 mi
11:53 PM
Jul 30
73 °FClear.5 mph71%29.91 "Hg10 mi
10:53 PM75 °FClear.6 mph66%29.92 "Hg10 mi
9:53 PM77 °FClear.No wind50%29.91 "Hg10 mi
8:53 PM77 °FSunny.5 mph48%29.90 "Hg10 mi
7:53 PM79 °FSunny.7 mph48%29.88 "Hg10 mi
6:53 PM85 °FSunny.8 mph40%29.87 "Hg10 mi
5:53 PM89 °FSunny.6 mph36%29.86 "Hg10 mi
4:53 PM88 °FSunny.8 mph39%29.88 "Hg10 mi
3:53 PM89 °FSunny.8 mph36%29.88 "Hg10 mi
2:53 PM87 °FSunny.5 mph39%29.90 "Hg10 mi
1:53 PM86 °FSunny.5 mph40%29.91 "Hg10 mi
12:53 PM86 °FSunny.7 mph42%29.93 "Hg10 mi
11:53 AM87 °FSunny.3 mph43%29.93 "Hg10 mi
10:53 AM83 °FSunny.3 mph48%29.94 "Hg10 mi
9:53 AM79 °FSunny.5 mph54%29.95 "Hg10 mi
8:53 AM76 °FSunny.No wind64%29.95 "Hg9 mi
7:53 AM74 °FSunny.No wind74%29.95 "Hg7 mi
6:53 AM71 °FClear.No wind81%29.94 "Hg7 mi
5:53 AM69 °FClear.No wind84%29.93 "Hg8 mi
Weather by CustomWeather, © 2014

See weather overviewHow to use our weather pages